Location: ???????
(55.4231°N, 38.5570°E)
Time: 14:13:43
(UTC+00:00)

ATLAS 3B R/B - Pass Details

Date: 05 August 2024
Orbit: 940 x 1254 km, 63.8° (Epoch: 18 September)

Event Time Altitude Azimuth Distance (km) Brightness Sun altitude
Rises 00:42:00 0° 312° (NW) 4,186 5.8 -7.3°
Reaches altitude 10° 00:44:57 10° 306° (NW) 3,232 5.1 -7.0°
Maximum altitude 00:52:05 40° 241° (WSW) 1,781 3.4 -6.3°
Drops below altitude 10° 00:59:08 10° 176° (S) 3,189 4.8 -5.5°
Sets 01:02:02 0° 169° (S) 4,123 5.5 -5.2°
